TimeEST,TemperatureF,Dew PointF,Humidity,Sea Level PressureIn,VisibilityMPH,Wind Direction,Wind SpeedMPH,Gust SpeedMPH,PrecipitationIn,Events,Conditions,WindDirDegrees,DateUTC
12:53 AM,44.1,30.9,60,30.17,10.0,North,3.5,-,N/A,,Clear,350,2013-11-08 05:53:00
1:53 AM,44.1,30.9,60,30.19,10.0,North,6.9,-,N/A,,Clear,360,2013-11-08 06:53:00
2:53 AM,45.0,30.0,56,30.20,10.0,North,9.2,-,N/A,,Clear,10,2013-11-08 07:53:00
3:53 AM,43.0,30.0,60,30.22,10.0,North,9.2,-,N/A,,Clear,10,2013-11-08 08:53:00
4:53 AM,42.1,28.9,60,30.24,10.0,NNE,9.2,-,N/A,,Clear,20,2013-11-08 09:53:00
5:53 AM,39.9,28.9,65,30.26,10.0,NNE,8.1,-,N/A,,Clear,30,2013-11-08 10:53:00
6:53 AM,39.9,28.0,63,30.30,10.0,North,5.8,-,N/A,,Clear,10,2013-11-08 11:53:00
7:53 AM,43.0,28.0,56,30.32,10.0,North,6.9,-,N/A,,Clear,10,2013-11-08 12:53:00
8:53 AM,48.0,28.0,46,30.33,10.0,North,9.2,-,N/A,,Clear,10,2013-11-08 13:53:00
9:53 AM,52.0,25.0,35,30.35,10.0,North,11.5,-,N/A,,Clear,10,2013-11-08 14:53:00
10:53 AM,55.0,23.0,29,30.34,10.0,NW,6.9,-,N/A,,Clear,320,2013-11-08 15:53:00
11:53 AM,55.9,21.9,27,30.32,10.0,NNW,5.8,-,N/A,,Clear,340,2013-11-08 16:53:00
12:53 PM,57.0,21.0,25,30.30,10.0,Calm,Calm,-,N/A,,Clear,0,2013-11-08 17:53:00
1:53 PM,57.9,21.0,24,30.27,10.0,NNW,6.9,-,N/A,,Clear,340,2013-11-08 18:53:00
2:53 PM,57.9,19.9,23,30.27,10.0,NNW,8.1,-,N/A,,Clear,340,2013-11-08 19:53:00
3:53 PM,57.9,19.0,22,30.28,10.0,NNW,8.1,-,N/A,,Clear,340,2013-11-08 20:53:00
4:53 PM,55.9,21.9,27,30.28,10.0,North,5.8,-,N/A,,Clear,10,2013-11-08 21:53:00
5:53 PM,48.9,23.0,36,30.30,10.0,Calm,Calm,-,N/A,,Clear,0,2013-11-08 22:53:00
6:53 PM,45.0,25.0,46,30.32,10.0,Calm,Calm,-,N/A,,Clear,0,2013-11-08 23:53:00
7:53 PM,41.0,27.0,57,30.33,10.0,NE,4.6,-,N/A,,Clear,50,2013-11-09 00:53:00
8:53 PM,46.0,26.1,46,30.34,10.0,Calm,Calm,-,N/A,,Clear,0,2013-11-09 01:53:00
9:53 PM,41.0,27.0,57,30.35,10.0,Calm,Calm,-,N/A,,Clear,0,2013-11-09 02:53:00
10:53 PM,37.0,28.0,70,30.36,10.0,Calm,Calm,-,N/A,,Clear,0,2013-11-09 03:53:00
11:53 PM,37.9,28.0,68,30.35,10.0,NE,4.6,-,N/A,,Clear,40,2013-11-09 04:53:00